FW4571 Loxahatchee FL US current weather conditions

sailwx.info

Wind from 028 at 2 knots gusting 8

Air temperature 27.8° C
Dewpoint 24.2° C

Last reported at 2020-Jul-10 03:08 UTC.
Time now 2020-Jul-10 03:58 UTC

Location: N 26°44' W 080°21'.
View on Google Maps.

See reports from other nearby stations

  
Tides and Currents Weather Stations Pressure Air Temp Water Temp Dewpoint Dewpoint Depression Visibility Wind Speed Wind Dir Waves Ship Positions
date/time (UTC)wind fromknots sea level pressurealtimeterstation pressurevisibilityair tempwater tempwave heightnotes
2020-Jul-10 03:08 028 2 gusting 8 27.8
2020-Jul-10 03:03 330 2 gusting 5 27.8
2020-Jul-10 02:58 195 2 gusting 5 27.8
2020-Jul-10 02:53 231 1 gusting 4 27.8
2020-Jul-10 02:48 214 3 gusting 9 27.8
2020-Jul-10 02:43 231 4 gusting 11 27.8
2020-Jul-10 02:38 244 5 gusting 11 27.8
2020-Jul-10 02:33 250 4 gusting 9 27.8
2020-Jul-10 02:28 252 5 gusting 10 27.8
2020-Jul-10 02:23 226 4 gusting 10 27.8
2020-Jul-10 02:18 244 4 gusting 8 27.8
2020-Jul-10 02:13 276 5 gusting 10 27.8
2020-Jul-10 02:08 259 5 gusting 10 28.3
2020-Jul-10 02:03 282 5 gusting 10 28.3
2020-Jul-10 01:57 286 4 gusting 9 28.9
2020-Jul-10 01:52 233 4 gusting 9 28.9
2020-Jul-10 01:47 252 4 gusting 10 29.4
2020-Jul-10 01:42 255 2 gusting 10 29.4
2020-Jul-10 01:37 250 1 gusting 5 30.0
2020-Jul-10 01:32 212 1 gusting 5 30.0
2020-Jul-10 01:27 157 1 gusting 3 30.6
2020-Jul-10 01:22 219 1 gusting 4 30.6
2020-Jul-10 01:17 224 1 gusting 4 30.6
2020-Jul-10 01:12 271 1 gusting 3 30.6
2020-Jul-10 01:07 156 0 gusting 1 30.6
2020-Jul-10 01:02 155 0 gusting 1 31.1
2020-Jul-10 00:57 155 0 gusting 1 31.1
2020-Jul-10 00:52 156 0 gusting 2 31.1
2020-Jul-10 00:47 155 0 gusting 2 30.6
2020-Jul-10 00:42 213 0 gusting 2 30.6
2020-Jul-10 00:37 203 0 gusting 2 30.6
2020-Jul-10 00:32 197 0 gusting 2 31.1
2020-Jul-10 00:27 194 0 gusting 2 31.1
2020-Jul-10 00:22 213 31.1
2020-Jul-10 00:17 215 0 gusting 2 31.1
2020-Jul-10 00:11 207 1 gusting 2 31.1
2020-Jul-10 00:06 238 1 gusting 3 31.7
2020-Jul-10 00:01 239 2 gusting 4 31.7
2020-Jul-09 23:56 235 1 gusting 4 31.7
2020-Jul-09 23:51 190 1 gusting 3 31.7
2020-Jul-09 23:46 211 1 gusting 2 31.7
2020-Jul-09 23:41 230 1 gusting 2 32.2
2020-Jul-09 23:36 231 0 gusting 2 32.8
2020-Jul-09 23:31 238 0 gusting 2 32.8
2020-Jul-09 23:26 257 0 gusting 2 33.3
2020-Jul-09 23:21 192 1 gusting 2 33.3
2020-Jul-09 23:16 215 1 gusting 2 33.3
2020-Jul-09 23:11 213 1 gusting 3 33.3
2020-Jul-09 23:05 216 2 gusting 4 33.3
2020-Jul-09 23:00 196 2 gusting 4 33.3
2020-Jul-09 22:55 213 2 gusting 4 33.3
2020-Jul-09 22:50 203 2 gusting 5 33.3
2020-Jul-09 22:45 206 3 gusting 5 33.3
2020-Jul-09 22:40 216 2 gusting 5 33.3
2020-Jul-09 22:35 183 2 gusting 5 33.9
2020-Jul-09 22:29 208 2 gusting 4 33.9
2020-Jul-09 22:24 193 2 gusting 5 33.9
2020-Jul-09 22:19 229 2 gusting 5 33.9
2020-Jul-09 22:14 214 2 gusting 5 33.9
2020-Jul-09 22:09 214 2 gusting 4 33.9
2020-Jul-09 22:04 231 2 gusting 6 33.9
2020-Jul-09 21:59 252 3 gusting 6 33.9
2020-Jul-09 21:54 234 2 gusting 6 33.9
2020-Jul-09 21:49 269 1 gusting 4 34.4
2020-Jul-09 21:44 267 1 gusting 4 34.4
2020-Jul-09 21:39 285 2 gusting 4 34.4
2020-Jul-09 21:34 225 2 gusting 5 34.4
2020-Jul-09 21:29 227 2 gusting 5 34.4
2020-Jul-09 21:23 256 2 gusting 6 34.4
2020-Jul-09 21:18 275 1 gusting 6 34.4
2020-Jul-09 21:13 225 1 gusting 4 34.4
2020-Jul-09 21:08 254 1 gusting 4 34.4
2020-Jul-09 21:03 247 2 gusting 4 34.4
2020-Jul-09 20:58 280 2 gusting 5 34.4
2020-Jul-09 20:53 235 2 gusting 5 34.4
2020-Jul-09 20:47 293 2 gusting 5 34.4
2020-Jul-09 20:42 277 2 gusting 5 34.4
2020-Jul-09 20:37 249 2 gusting 6 34.4
2020-Jul-09 20:32 245 2 gusting 6 34.4
2020-Jul-09 20:27 210 1 gusting 6 33.9
2020-Jul-09 20:22 206 3 gusting 5 33.9
2020-Jul-09 20:17 244 4 gusting 6 33.9
2020-Jul-09 20:12 305 4 gusting 7 33.9
2020-Jul-09 20:07 269 3 gusting 6 34.4
2020-Jul-09 19:56 302 3 gusting 6 34.4
2020-Jul-09 19:51 280 3 gusting 8 34.4
2020-Jul-09 19:46 281 4 gusting 8 33.9
2020-Jul-09 19:41 294 3 gusting 8 34.4
2020-Jul-09 19:36 276 3 gusting 7 33.9
2020-Jul-09 19:30 319 3 gusting 7 33.9
2020-Jul-09 19:25 276 4 gusting 8 33.9
2020-Jul-09 19:20 291 3 gusting 8 33.9
2020-Jul-09 19:15 263 3 gusting 8 33.9
2020-Jul-09 19:10 266 4 gusting 7 33.9
2020-Jul-09 19:05 227 5 gusting 10 33.9
2020-Jul-09 19:00 258 5 gusting 10 33.9
2020-Jul-09 18:55 270 4 gusting 10 33.9
2020-Jul-09 18:50 293 4 gusting 9 33.3
2020-Jul-09 18:45 259 4 gusting 8 33.3
2020-Jul-09 18:40 329 4 gusting 8 33.3
2020-Jul-09 18:35 273 4 gusting 9 33.3
2020-Jul-09 18:30 272 4 gusting 9 33.3
2020-Jul-09 18:25 254 4 gusting 8 33.3
2020-Jul-09 18:20 269 4 gusting 8 33.3
2020-Jul-09 18:10 274 4 gusting 8 32.8
2020-Jul-09 18:05 277 4 gusting 8 32.8
2020-Jul-09 18:00 270 3 gusting 6 33.3
2020-Jul-09 17:55 277 4 gusting 7 32.8
2020-Jul-09 17:50 263 4 gusting 7 32.8
2020-Jul-09 17:45 284 4 gusting 7 32.8
2020-Jul-09 17:39 333 4 gusting 9 32.8
2020-Jul-09 17:34 242 5 gusting 10 32.8
2020-Jul-09 17:29 254 5 gusting 10 32.8
2020-Jul-09 17:24 296 4 gusting 8 32.8
2020-Jul-09 17:19 281 5 gusting 8 32.8
2020-Jul-09 17:14 294 4 gusting 8 32.2
2020-Jul-09 17:09 245 4 gusting 8 32.2
2020-Jul-09 17:04 248 4 gusting 8 32.2
2020-Jul-09 16:59 32.2
2020-Jul-09 16:54 246 4 gusting 8 32.2
2020-Jul-09 16:49 265 4 gusting 8 32.2
2020-Jul-09 16:44 342 4 gusting 7 31.7
2020-Jul-09 16:39 257 4 gusting 7 32.2
2020-Jul-09 16:34 257 3 gusting 7 31.7
2020-Jul-09 16:29 278 3 gusting 8 31.7
2020-Jul-09 16:24 294 4 gusting 8 31.7
2020-Jul-09 16:19 267 4 gusting 8 31.7
2020-Jul-09 16:14 240 3 gusting 8 31.7
2020-Jul-09 16:08 284 3 gusting 8 31.7
2020-Jul-09 16:03 318 3 gusting 8 31.7
2020-Jul-09 15:58 276 3 gusting 8 31.1
2020-Jul-09 15:53 296 4 gusting 8 31.1
2020-Jul-09 15:48 330 4 gusting 8 31.1
2020-Jul-09 15:43 272 4 gusting 8 31.1
2020-Jul-09 15:38 296 4 gusting 8 31.1
2020-Jul-09 15:33 313 4 gusting 8 31.1
2020-Jul-09 15:28 319 4 gusting 8 31.1
2020-Jul-09 15:23 282 4 gusting 9 30.6
2020-Jul-09 15:18 298 4 gusting 9 30.6
2020-Jul-09 15:13 291 4 gusting 8 30.6
2020-Jul-09 15:08 005 4 gusting 10 30.6
2020-Jul-09 15:03 299 4 gusting 10 30.6
2020-Jul-09 14:58 292 4 gusting 7 30.0
2020-Jul-09 14:53 285 4 gusting 7 30.0
2020-Jul-09 14:48 303 4 gusting 7 29.4
2020-Jul-09 14:43 301 5 gusting 12 30.0
2020-Jul-09 14:37 277 5 gusting 12 29.4
2020-Jul-09 14:33 355 4 gusting 8 29.4
2020-Jul-09 14:27 297 5 gusting 9 29.4
2020-Jul-09 14:22 314 5 gusting 9 29.4
2020-Jul-09 14:17 299 4 gusting 9 29.4
2020-Jul-09 14:12 281 4 gusting 7 29.4
2020-Jul-09 14:07 280 3 gusting 6 28.9
2020-Jul-09 14:02 326 3 gusting 7 28.9
2020-Jul-09 13:57 270 3 gusting 7 28.3
2020-Jul-09 13:52 320 3 gusting 7 28.3
2020-Jul-09 13:47 314 3 gusting 6 28.3
2020-Jul-09 13:42 300 2 gusting 5 27.8
2020-Jul-09 13:37 265 2 gusting 4 27.8
2020-Jul-09 13:32 270 2 gusting 4 27.8
2020-Jul-09 13:27 257 1 gusting 3 27.8
2020-Jul-09 13:22 267 1 gusting 4 27.2
2020-Jul-09 13:17 281 2 gusting 4 27.2
2020-Jul-09 13:12 294 2 gusting 4 27.2
2020-Jul-09 13:07 295 1 gusting 3 27.2
2020-Jul-09 13:02 283 1 gusting 3 26.7
2020-Jul-09 12:56 310 1 gusting 3 26.7
2020-Jul-09 12:52 315 1 gusting 3 26.7
2020-Jul-09 12:46 261 1 gusting 3 26.7
2020-Jul-09 12:41 268 1 gusting 3 26.7
2020-Jul-09 12:36 279 1 gusting 3 26.1
2020-Jul-09 12:31 298 1 gusting 3 26.1
2020-Jul-09 12:26 274 1 gusting 3 25.6
2020-Jul-09 12:21 265 0 gusting 2 25.6
2020-Jul-09 12:16 308 0 gusting 1 25.6
2020-Jul-09 12:11 309 0 gusting 1 25.6
2020-Jul-09 12:06 309 0 gusting 1 25.6
2020-Jul-09 12:00 347 25.6
2020-Jul-09 11:55 348 25.6
2020-Jul-09 11:50 347 25.0
2020-Jul-09 11:45 348 25.0
2020-Jul-09 11:40 348 24.4
2020-Jul-09 11:35 348 24.4
2020-Jul-09 11:29 348 24.4
2020-Jul-09 11:24 348 24.4
2020-Jul-09 11:19 348 24.4
2020-Jul-09 11:14 348 24.4
2020-Jul-09 11:08 348 24.4
2020-Jul-09 11:03 348 24.4
2020-Jul-09 10:58 348 24.4
2020-Jul-09 10:53 348 24.4
2020-Jul-09 10:48 348 24.4
2020-Jul-09 10:42 347 24.4
2020-Jul-09 10:37 347 24.4
2020-Jul-09 10:32 347 24.4
2020-Jul-09 10:27 347 24.4
2020-Jul-09 10:22 347 24.4
2020-Jul-09 10:16 347 24.4
2020-Jul-09 10:11 347 24.4
2020-Jul-09 10:05 347 24.4
2020-Jul-09 10:00 347 24.4
2020-Jul-09 09:55 348 24.4
2020-Jul-09 09:49 348 24.4
2020-Jul-09 09:44 348 24.4
2020-Jul-09 09:38 348 24.4
2020-Jul-09 09:33 348 24.4
2020-Jul-09 09:28 348 24.4
2020-Jul-09 09:22 348 24.4
2020-Jul-09 09:17 348 24.4
2020-Jul-09 09:12 348 24.4
2020-Jul-09 09:06 348 24.4
2020-Jul-09 09:01 348 24.4
2020-Jul-09 08:56 348 24.4
2020-Jul-09 08:51 348 24.4
2020-Jul-09 08:45 348 24.4
2020-Jul-09 08:41 348 24.4
2020-Jul-09 08:35 348 24.4
2020-Jul-09 08:30 348 24.4
2020-Jul-09 08:25 348 24.4
2020-Jul-09 08:20 348 24.4
2020-Jul-09 08:15 348 24.4
2020-Jul-09 08:09 348 24.4
2020-Jul-09 08:04 348 24.4
2020-Jul-09 07:59 348 24.4
2020-Jul-09 07:54 348 24.4
2020-Jul-09 07:49 348 24.4
2020-Jul-09 07:44 348 24.4
2020-Jul-09 07:38 348 24.4
2020-Jul-09 07:34 348 24.4
2020-Jul-09 07:28 348 0 gusting 0 24.4
2020-Jul-09 07:23 348 24.4
2020-Jul-09 07:18 348 25.0
2020-Jul-09 07:13 348 25.0
2020-Jul-09 07:08 348 25.0
2020-Jul-09 07:03 348 25.0
2020-Jul-09 06:58 348 25.0
2020-Jul-09 06:52 348 25.0
2020-Jul-09 06:47 348 25.0
2020-Jul-09 06:42 348 25.0
2020-Jul-09 06:37 348 25.0
2020-Jul-09 06:32 348 25.0
2020-Jul-09 06:27 348 25.0
2020-Jul-09 06:22 348 25.0
2020-Jul-09 06:17 348 25.0
2020-Jul-09 06:12 348 25.0
2020-Jul-09 06:07 348 25.0
2020-Jul-09 06:02 348 25.0
2020-Jul-09 05:56 348 25.0
2020-Jul-09 05:51 348 25.0
2020-Jul-09 05:46 348 25.0
2020-Jul-09 05:41 348 25.6
2020-Jul-09 05:36 348 25.6
2020-Jul-09 05:31 348 25.6
2020-Jul-09 05:26 348 25.6
2020-Jul-09 05:21 348 25.6
2020-Jul-09 05:15 348 25.6
2020-Jul-09 05:10 348 25.6
2020-Jul-09 05:05 348 25.6
2020-Jul-09 04:59 348 25.6
2020-Jul-09 04:54 348 0 gusting 3 25.6
2020-Jul-09 04:49 348 0 gusting 3 25.6
2020-Jul-09 04:44 263 25.6
2020-Jul-09 04:39 263 25.6
2020-Jul-09 04:34 263 25.6
2020-Jul-09 04:28 263 0 gusting 2 25.6
2020-Jul-09 04:23 263 0 gusting 2 25.6
2020-Jul-09 04:18 266 0 gusting 2 25.6
2020-Jul-09 04:13 266 0 gusting 2 25.6
2020-Jul-09 04:08 288 0 gusting 2 25.6
2020-Jul-09 04:03 113 25.6
2020-Jul-09 03:58 113 0 gusting 2 25.6
2020-Jul-09 03:53 113 1 gusting 2 25.6
2020-Jul-09 03:47 112 2 gusting 9 25.6
2020-Jul-09 03:43 329 5 gusting 12 26.1
2020-Jul-09 03:37 269 4 gusting 12 26.7
2020-Jul-09 03:32 265 0 gusting 8 26.7
2020-Jul-09 03:27 091 26.7
2020-Jul-09 03:22 090 26.7
2020-Jul-09 03:17 092 26.7
2020-Jul-09 03:12 098 26.7
2020-Jul-09 03:07 102 26.7
2020-Jul-09 03:02 100 26.7
2020-Jul-09 02:57 098 27.2
2020-Jul-09 02:52 096 27.2
2020-Jul-09 02:47 095 27.2
2020-Jul-09 02:42 094 27.2
2020-Jul-09 02:37 093 27.2
2020-Jul-09 02:32 090 27.2
2020-Jul-09 02:26 089 27.2
2020-Jul-09 02:21 088 27.2
2020-Jul-09 02:16 088 27.2
2020-Jul-09 02:11 089 27.2
2020-Jul-09 02:06 089 27.2
2020-Jul-09 02:01 089 27.8
2020-Jul-09 01:56 089 27.2
2020-Jul-09 01:51 090 27.2
2020-Jul-09 01:46 090 27.8
2020-Jul-09 01:41 090 27.8
2020-Jul-09 01:35 092 0 gusting 1 27.8
2020-Jul-09 01:30 095 0 gusting 1 27.8
2020-Jul-09 01:25 096 27.8
2020-Jul-09 01:20 096 27.8
2020-Jul-09 01:15 098 27.8
2020-Jul-09 01:10 092 27.8
2020-Jul-09 01:05 088 28.3
2020-Jul-09 01:00 088 28.3
2020-Jul-09 00:54 089 28.3
2020-Jul-09 00:49 086 28.9
2020-Jul-09 00:44 085 0 gusting 0 28.9
2020-Jul-09 00:39 085 28.9
2020-Jul-09 00:34 085 28.9
2020-Jul-09 00:29 085 28.9
2020-Jul-09 00:24 085 28.9
2020-Jul-09 00:19 286 0 gusting 0 28.9
2020-Jul-09 00:13 287 0 gusting 0 29.4
2020-Jul-09 00:08 293 0 gusting 1 29.4
2020-Jul-09 00:03 292 0 gusting 3 29.4
2020-Jul-08 23:58 296 0 gusting 3 29.4
2020-Jul-08 23:53 316 1 gusting 2 29.4
2020-Jul-08 23:48 314 1 gusting 3 30.0
2020-Jul-08 23:43 307 1 gusting 4 30.0
2020-Jul-08 23:38 309 1 gusting 4 30.0
2020-Jul-08 23:33 285 1 gusting 4 30.0
2020-Jul-08 23:28 302 2 gusting 5 30.6
2020-Jul-08 23:23 304 2 gusting 6 30.6
2020-Jul-08 23:18 291 3 gusting 6 30.6
2020-Jul-08 23:13 271 3 gusting 8 30.6
2020-Jul-08 23:08 307 3 gusting 8 30.6
2020-Jul-08 23:03 292 4 gusting 8 31.1
2020-Jul-08 22:58 327 4 gusting 8 31.1
2020-Jul-08 22:53 287 4 gusting 8 31.1
2020-Jul-08 22:48 273 6 gusting 13 31.1
2020-Jul-08 22:43 289 6 gusting 13 31.1
2020-Jul-08 22:38 273 6 gusting 13 31.1
2020-Jul-08 22:33 273 6 gusting 13 31.1
2020-Jul-08 22:28 256 6 gusting 12 31.1
2020-Jul-08 22:23 269 6 gusting 14 31.7
2020-Jul-08 22:17 277 8 gusting 14 31.7
2020-Jul-08 22:12 241 8 gusting 14 31.7
2020-Jul-08 22:07 256 8 gusting 13 31.7
2020-Jul-08 22:02 277 8 gusting 13 32.2
2020-Jul-08 21:57 275 6 gusting 13 32.2
2020-Jul-08 21:52 250 4 gusting 13 33.3
2020-Jul-08 21:47 250 4 gusting 8 33.9
2020-Jul-08 21:42 265 3 gusting 8 33.9
2020-Jul-08 21:37 279 3 gusting 6 34.4
2020-Jul-08 21:32 267 4 gusting 8 34.4
2020-Jul-08 21:27 248 4 gusting 8 34.4
2020-Jul-08 21:22 267 4 gusting 8 33.9
2020-Jul-08 21:17 303 4 gusting 10 34.4
2020-Jul-08 21:12 205 4 gusting 10 34.4
2020-Jul-08 21:07 292 4 gusting 8 34.4
2020-Jul-08 21:02 245 4 gusting 8 34.4
2020-Jul-08 20:57 240 4 gusting 7 34.4
2020-Jul-08 20:52 270 4 gusting 7 34.4
2020-Jul-08 20:47 266 4 gusting 9 34.4
2020-Jul-08 20:42 281 4 gusting 9 34.4
2020-Jul-08 20:37 252 3 gusting 7 34.4
2020-Jul-08 20:32 251 3 gusting 7 34.4
2020-Jul-08 20:27 234 3 gusting 7 34.4
2020-Jul-08 20:22 282 3 gusting 6 34.4
2020-Jul-08 20:17 301 3 gusting 7 34.4
2020-Jul-08 20:12 296 4 gusting 8 34.4
2020-Jul-08 20:07 321 4 gusting 8 34.4
2020-Jul-08 20:02 308 3 gusting 9 34.4
2020-Jul-08 19:57 295 3 gusting 9 34.4
2020-Jul-08 19:52 270 3 gusting 7 34.4
2020-Jul-08 19:47 293 4 gusting 8 34.4
2020-Jul-08 19:44 288 4 gusting 8 34.4
2020-Jul-08 19:37 265 4 gusting 9 34.4
2020-Jul-08 19:32 322 5 gusting 10 34.4
2020-Jul-08 19:27 271 5 gusting 11 33.9
2020-Jul-08 19:17 294 4 gusting 10 34.4
2020-Jul-08 19:12 319 4 gusting 8 34.4
2020-Jul-08 19:07 264 4 gusting 7 34.4
2020-Jul-08 19:02 328 4 gusting 9 34.4
2020-Jul-08 18:57 265 4 gusting 9 33.9
2020-Jul-08 18:52 323 3 gusting 9 34.4
2020-Jul-08 18:47 284 4 gusting 8 34.4
2020-Jul-08 18:41 262 4 gusting 9 33.9
2020-Jul-08 18:36 302 3 gusting 9 33.9
2020-Jul-08 18:31 290 3 gusting 7 33.9
2020-Jul-08 18:26 303 3 gusting 7 33.9
2020-Jul-08 18:21 244 3 gusting 7 33.9
2020-Jul-08 18:16 296 3 gusting 9 33.9
2020-Jul-08 18:11 250 3 gusting 9 33.3
2020-Jul-08 18:06 312 3 gusting 7 33.9
2020-Jul-08 18:01 250 3 gusting 8 33.9
2020-Jul-08 17:56 281 3 gusting 8 33.9
2020-Jul-08 17:51 267 3 gusting 6 33.3
2020-Jul-08 17:46 290 3 gusting 6 33.3
2020-Jul-08 17:41 257 3 gusting 6 33.3
2020-Jul-08 17:35 265 3 gusting 6 33.3
2020-Jul-08 17:30 288 2 gusting 6 33.3
2020-Jul-08 17:25 299 3 gusting 7 33.3
2020-Jul-08 17:20 246 3 gusting 7 33.3
2020-Jul-08 17:15 314 3 gusting 6 32.8
2020-Jul-08 17:10 236 3 gusting 6 32.8
2020-Jul-08 17:05 252 3 gusting 6 32.8
2020-Jul-08 16:59 317 2 gusting 6 32.8
2020-Jul-08 16:54 325 3 gusting 7 32.8
2020-Jul-08 16:49 290 3 gusting 7 32.8
2020-Jul-08 16:44 286 3 gusting 6 32.8
2020-Jul-08 16:39 281 3 gusting 6 32.8
2020-Jul-08 16:34 250 2 gusting 5 32.2
2020-Jul-08 16:29 324 2 gusting 6 32.2
2020-Jul-08 16:23 223 3 gusting 6 32.2
2020-Jul-08 16:18 318 2 gusting 5 32.8
2020-Jul-08 16:13 273 2 gusting 5 32.2
2020-Jul-08 16:08 298 3 gusting 8 32.2
2020-Jul-08 16:03 273 3 gusting 8 32.2
2020-Jul-08 15:58 278 3 gusting 7 31.7
2020-Jul-08 15:53 276 4 gusting 7 31.7
2020-Jul-08 15:48 277 3 gusting 7 31.7
2020-Jul-08 15:42 281 2 gusting 5 31.7
2020-Jul-08 15:37 315 2 gusting 5 31.7
2020-Jul-08 15:32 304 3 gusting 6 31.7
2020-Jul-08 15:27 298 2 gusting 6 31.7
2020-Jul-08 15:22 276 1 gusting 5 31.7
2020-Jul-08 15:17 227 1 gusting 5 31.1
2020-Jul-08 15:12 254 1 gusting 3 31.1
2020-Jul-08 15:06 250 2 gusting 5 31.1
2020-Jul-08 15:01 219 2 gusting 5 31.1
2020-Jul-08 14:56 298 2 gusting 5 30.6
2020-Jul-08 14:51 257 2 gusting 5 30.6
2020-Jul-08 14:46 248 2 gusting 4 30.6
2020-Jul-08 14:41 294 2 gusting 4 30.6
2020-Jul-08 14:36 279 2 gusting 4 30.6
2020-Jul-08 14:31 275 2 gusting 5 30.6
2020-Jul-08 14:25 278 2 gusting 5 30.0
2020-Jul-08 14:20 243 2 gusting 4 30.0
2020-Jul-08 14:15 311 2 gusting 5 30.0
2020-Jul-08 14:10 284 2 gusting 6 30.0
2020-Jul-08 14:05 294 3 gusting 6 29.4
2020-Jul-08 14:00 299 2 gusting 6 29.4
2020-Jul-08 13:55 278 2 gusting 4 30.0
2020-Jul-08 13:50 254 2 gusting 4 29.4
2020-Jul-08 13:45 216 1 gusting 3 29.4
2020-Jul-08 13:40 186 1 gusting 4 29.4
2020-Jul-08 13:35 204 1 gusting 4 29.4
2020-Jul-08 13:29 262 0 gusting 4 29.4
2020-Jul-08 13:24 201 0 gusting 2 28.9
2020-Jul-08 13:19 205 0 gusting 2 28.9
2020-Jul-08 13:14 194 1 gusting 3 28.9
2020-Jul-08 13:09 213 0 gusting 3 28.3
2020-Jul-08 13:04 186 0 gusting 3 27.8
2020-Jul-08 12:59 217 1 gusting 3 27.8
2020-Jul-08 12:54 187 0 gusting 3 27.2
2020-Jul-08 12:49 184 27.2
2020-Jul-08 12:44 180 0 gusting 2 26.7
2020-Jul-08 12:39 191 1 gusting 3 26.7
2020-Jul-08 12:34 196 0 gusting 3 26.1
2020-Jul-08 12:28 163 0 gusting 1 26.1
2020-Jul-08 12:23 165 26.1
2020-Jul-08 12:18 335 25.6
2020-Jul-08 12:13 335 25.6
2020-Jul-08 12:08 335 25.6
2020-Jul-08 12:03 335 25.6
2020-Jul-08 11:58 336 25.0
2020-Jul-08 11:53 334 25.0
2020-Jul-08 11:48 334 24.4
2020-Jul-08 11:43 334 24.4
2020-Jul-08 11:37 313 24.4
2020-Jul-08 11:32 316 23.9
2020-Jul-08 11:27 316 23.9
2020-Jul-08 11:22 318 23.9
2020-Jul-08 11:17 319 23.9
2020-Jul-08 11:11 319 23.3
2020-Jul-08 11:06 320 23.3
2020-Jul-08 11:01 321 23.3
2020-Jul-08 10:56 321 23.3
2020-Jul-08 10:50 322 23.3
2020-Jul-08 10:45 322 23.3
2020-Jul-08 10:40 321 23.3
2020-Jul-08 10:35 321 23.3
2020-Jul-08 10:30 322 23.3
2020-Jul-08 10:25 321 23.3
2020-Jul-08 10:19 321 23.3
2020-Jul-08 10:14 322 23.3
2020-Jul-08 10:09 322 23.3
2020-Jul-08 10:04 323 23.3
2020-Jul-08 09:59 323 23.3
2020-Jul-08 09:54 323 23.3
2020-Jul-08 09:48 322 23.3
2020-Jul-08 09:43 321 23.3
2020-Jul-08 09:38 320 23.3
2020-Jul-08 09:33 321 23.3
2020-Jul-08 09:28 322 23.3
2020-Jul-08 09:23 322 22.8
2020-Jul-08 09:18 324 23.3
2020-Jul-08 09:13 323 23.3
2020-Jul-08 09:08 323 23.3
2020-Jul-08 09:02 323 23.3
2020-Jul-08 08:57 331 23.3
2020-Jul-08 08:52 333 23.3
2020-Jul-08 08:47 333 23.3
2020-Jul-08 08:42 333 23.3
2020-Jul-08 08:36 333 23.3
2020-Jul-08 08:31 333 23.3
2020-Jul-08 08:26 333 23.3
2020-Jul-08 08:21 333 23.9
2020-Jul-08 08:16 333 23.9
2020-Jul-08 08:11 333 23.9
2020-Jul-08 08:05 333 23.9
2020-Jul-08 08:00 333 23.9
2020-Jul-08 07:55 333 23.9
2020-Jul-08 07:50 333 23.9
2020-Jul-08 07:45 333 23.9
2020-Jul-08 07:40 333 23.9
2020-Jul-08 07:35 333 23.9
2020-Jul-08 07:30 333 0 gusting 1 23.9
2020-Jul-08 07:25 333 0 gusting 1 23.9
2020-Jul-08 07:19 333 0 gusting 1 23.9
2020-Jul-08 07:14 085 23.9
2020-Jul-08 07:09 085 23.9
2020-Jul-08 07:04 085 23.9
2020-Jul-08 06:59 085 23.9
2020-Jul-08 06:54 085 23.9
2020-Jul-08 06:48 085 23.9
2020-Jul-08 06:43 085 23.9
2020-Jul-08 06:38 085 23.9
2020-Jul-08 06:33 085 23.9
2020-Jul-08 06:28 086 23.9
2020-Jul-08 06:23 086 23.9
2020-Jul-08 06:17 086 23.9
2020-Jul-08 06:12 086 23.9
2020-Jul-08 06:07 086 23.9
2020-Jul-08 06:02 086 23.3
2020-Jul-08 05:56 086 0 gusting 1 23.9
2020-Jul-08 05:51 086 0 gusting 1 23.9
2020-Jul-08 05:46 086 23.9
2020-Jul-08 05:41 086 23.9
2020-Jul-08 05:36 086 23.9
2020-Jul-08 05:31 086 23.9
2020-Jul-08 05:26 086 23.9
2020-Jul-08 05:20 086 23.9
2020-Jul-08 05:14 086 23.9
2020-Jul-08 05:09 086 23.9
2020-Jul-08 05:04 086 23.9
2020-Jul-08 04:59 086 0 gusting 1 23.9
2020-Jul-08 04:54 086 24.4
2020-Jul-08 04:49 086 24.4
2020-Jul-08 04:44 086 24.4
2020-Jul-08 04:38 086 24.4
2020-Jul-08 04:33 086 24.4
2020-Jul-08 04:28 086 24.4
2020-Jul-08 04:23 086 24.4
2020-Jul-08 04:18 086 24.4
2020-Jul-08 04:13 086 24.4
2020-Jul-08 04:08 086 24.4
2020-Jul-08 04:03 086 0 gusting 2 24.4
2020-Jul-08 03:57 086 0 gusting 2 24.4
2020-Jul-08 03:52 086 0 gusting 1 24.4
2020-Jul-08 03:47 086 0 gusting 2 24.4
2020-Jul-08 03:42 086 0 gusting 2 24.4
2020-Jul-08 03:37 066 0 gusting 2 24.4
2020-Jul-08 03:32 074 0 gusting 2 24.4
2020-Jul-08 03:27 311 24.4
2020-Jul-08 03:22 302 24.4
2020-Jul-08 03:17 302 24.4
2020-Jul-08 03:11 302 0 gusting 1 24.4
2020-Jul-08 03:06 302 24.4
2020-Jul-08 03:01 302 24.4